This is the latest recevied weather packets stored in our database for station/object M0ADS. If no packets are shown the sender has not sent any weather packets the latest 10 day(s).
| Time | Temp. | Humidity | Pressure | Rain* | Wind** | Luminosity | Snow |
|---|---|---|---|---|---|---|---|
| 1777509188 | 5.56° C | 81% | 1027.1 hPa | 0 mm | - | - | - |
| 1777508287 | 6.11° C | 80% | 1027.2 hPa | 0 mm | - | - | - |
| 1777507386 | 6.11° C | 79% | 1027.3 hPa | 0 mm | - | - | - |
| 1777506485 | 6.67° C | 78% | 1027.4 hPa | 0 mm | - | - | - |
| 1777505586 | 6.67° C | 77% | 1027.4 hPa | 0 mm | - | - | - |
| 1777504686 | 7.22° C | 77% | 1027.5 hPa | 0 mm | - | - | - |
| 1777503783 | 7.22° C | 76% | 1027.5 hPa | 0 mm | - | - | - |
| 1777502883 | 7.22° C | 75% | 1027.4 hPa | 0 mm | - | - | - |
| 1777501981 | 7.78° C | 73% | 1027.5 hPa | 0 mm | - | - | - |
| 1777501080 | 7.78° C | 72% | 1027.7 hPa | 0 mm | - | - | - |
| 1777500179 | 8.33° C | 70% | 1027.7 hPa | 0 mm | - | - | - |
| 1777499279 | 8.33° C | 69% | 1027.6 hPa | 0 mm | - | - | - |
| 1777498379 | 8.33° C | 68% | 1027.6 hPa | 0 mm | - | - | - |
| 1777497479 | 8.89° C | 66% | 1027.5 hPa | 0 mm | - | - | - |
| 1777496579 | 8.89° C | 65% | 1027.5 hPa | 0 mm | - | - | - |
| 1777495679 | 8.89° C | 63% | 1027.5 hPa | 0 mm | - | - | - |
| 1777494779 | 9.44° C | 62% | 1027.3 hPa | 0 mm | - | - | - |
| 1777493879 | 9.44° C | 60% | 1027.2 hPa | 0 mm | - | - | - |
| 1777492976 | 10° C | 59% | 1027.1 hPa | 0 mm | - | - | - |
| 1777492077 | 10.56° C | 58% | 1027 hPa | 0 mm | - | - | - |
| 1777491177 | 10.56° C | 56% | 1027 hPa | 0 mm | - | - | - |
| 1777490277 | 11.11° C | 54% | 1026.9 hPa | 0 mm | - | - | - |
| 1777489377 | 11.67° C | 51% | 1026.6 hPa | 0 mm | - | - | - |
| 1777488474 | 11.67° C | 49% | 1026.5 hPa | 0 mm | - | - | - |
| 1777487575 | 12.22° C | 48% | 1026.6 hPa | 0 mm | - | - | - |
* Rain latest hour (hover to see other rain measurements)
** Current wind speed in m/s (hover to see current wind gust speed)